Weather observations for the past three days for
Tracy Municipal Airport
Imperial (Metric)
Date Time (pdt) Wind (mph) Vis. (mi.) Weather Sky Cond. Temperature (ºF) Relative Humidity Wind Chill (°F) Heat Index (°F) Pressure Precipitation (in)
Air Dwpt 6 hour altimeter (in) sea level (mb) 1 hr 3 hr 6 hr
Max. Min.
07 00:15 E 7 10.00 Fair CLR 62.6 53.6 73% 30.05 0.0
06 23:55 Calm 10.00 Fair CLR 64.4 53.6 68% 30.05 0.0
06 23:35 Calm 10.00 Fair CLR 64.4 53.6 68% 30.05 0.0
06 23:15 N 5 10.00 Fair CLR 64.4 53.6 68% 30.05 0.0
06 22:55 Calm 10.00 Fair CLR 66.2 53.6 64% 30.05 0.0
06 22:35 W 7 10.00 Fair CLR 66.2 53.6 64% 30.05 0.0
06 22:15 SW 10 10.00 Fair CLR 68 53.6 60% 30.05 0.0
06 21:55 W 5 10.00 Fair CLR 64.4 53.6 68% 30.05 0.0
06 21:25 W 5 10.00 Fair CLR 64.4 53.6 68% 30.06 0.0
06 21:15 Calm 10.00 Fair CLR 66.2 53.6 64% 30.06 0.0
06 20:45 W 7 10.00 Fair CLR 68 53.6 60% 30.05 0.0
06 20:35 W 8 10.00 Fair CLR 69.8 53.6 57% 30.05 0.0
06 20:15 NW 9 10.00 Fair CLR 69.8 55.4 60% 30.04 0.0
06 19:55 NW 9 10.00 Fair CLR 71.6 55.4 57% 30.04 0.0
06 19:35 N 7 10.00 Fair CLR 73.4 55.4 53% 30.03 0.0
06 19:15 N 8 10.00 Fair CLR 73.4 55.4 53% 30.02 0.0
06 18:55 N 8 10.00 Fair CLR 75.2 55.4 50% 78 30.02 0.0
06 18:35 N 9 10.00 Fair CLR 75.2 55.4 50% 78 30.02 0.0
06 18:15 N 9 10.00 Fair CLR 75.2 55.4 50% 78 30.02 0.0
06 17:55 NW 7 10.00 Fair CLR 75.2 53.6 47% 78 30.02 0.0
06 17:35 N 9 10.00 Fair CLR 75.2 53.6 47% 78 30.02 0.0
06 15:05 N 9 10.00 Fair CLR 75.2 51.8 44% 78 30.06 0.0
06 14:55 Vrbl 7 G 14 10.00 Fair CLR 73.4 51.8 47% 30.07 0.0
06 14:35 Vrbl 7 G 13 10.00 Fair CLR 73.4 50 44% 30.07 0.0
06 14:15 NE 7 10.00 Fair CLR 73.4 50 44% 30.08 0.0
06 13:55 N 7 10.00 Fair CLR 73.4 50 44% 30.09 0.0
06 13:35 N 9 10.00 Fair CLR 73.4 50 44% 30.1 0.0
06 13:15 Vrbl 8 G 15 10.00 Fair CLR 71.6 50 47% 30.1 0.0
06 12:25 N 8 10.00 Partly Cloudy SCT043 71.6 50 47% 30.11 0.0
06 12:15 Vrbl 5 10.00 Partly Cloudy SCT042 69.8 50 50% 30.12 0.0
06 11:55 N 5 G 12 10.00 Fair CLR 69.8 50 50% 30.12 0.0
06 11:35 Vrbl 5 10.00 Fair CLR 68 50 53% 30.12 0.0
06 11:15 Vrbl 6 10.00 Fair CLR 68 50 53% 30.13 0.0
06 10:55 NE 7 10.00 Fair CLR 68 51.8 56% 30.13 0.0
06 10:35 NE 7 G 13 10.00 Fair CLR 66.2 51.8 60% 30.13 0.0
06 10:15 N 5 10.00 A Few Clouds FEW046 66.2 51.8 60% 30.13 0.0
06 09:55 NE 5 10.00 Mostly Cloudy BKN047 64.4 50 60% 30.13 0.0
06 09:35 Calm 10.00 Overcast OVC047 62.6 50 64% 30.13 0.0
06 09:15 Vrbl 3 10.00 Overcast OVC047 62.6 51.8 68% 30.13 0.0
06 08:55 N 5 10.00 Overcast OVC047 60.8 51.8 72% 30.13 0.0
06 08:25 Calm 10.00 Overcast OVC048 59 59 100% 30.13 0.0
06 08:15 Calm 10.00 Overcast OVC048 59 59 100% 30.13 0.0
06 07:55 Calm 10.00 Overcast OVC049 57.2 57.2 100% 30.13 0.0
06 07:35 SW 3 10.00 Overcast OVC049 57.2 57.2 100% 30.13 0.0
06 07:15 Calm 10.00 Overcast OVC050 57.2 55.4 94% 30.13 0.0
06 06:55 SW 3 10.00 Overcast OVC050 55.4 55.4 100% 30.12 0.0
06 06:35 S 5 10.00 Overcast OVC050 55.4 55.4 100% 30.12 0.0
06 06:15 S 6 10.00 Overcast OVC050 53.6 53.6 100% 30.12 0.0
06 05:55 S 6 10.00 Overcast OVC050 53.6 53.6 100% 30.11 0.0
06 05:25 S 6 10.00 Overcast OVC050 53.6 53.6 100% 30.11 0.0
06 05:15 S 5 10.00 Overcast OVC050 53.6 53.6 100% 30.11 0.0
06 04:55 Calm 10.00 Overcast OVC050 53.6 53.6 100% 30.1 0.0
06 04:35 SE 3 10.00 Mostly Cloudy BKN050 53.6 53.6 100% 30.1 0.0
06 04:15 Calm 10.00 Mostly Cloudy BKN050 53.6 53.6 100% 30.09 0.0
06 03:55 Calm 10.00 Overcast OVC050 53.6 53.6 100% 30.08 0.0
06 03:35 Calm 10.00 Mostly Cloudy BKN050 53.6 53.6 100% 30.08 0.0
06 03:15 NE 5 10.00 Fair CLR 53.6 53.6 100% 30.08 0.0
06 02:55 Calm 10.00 Fair CLR 55.4 55.4 100% 30.07 0.0
06 02:35 Vrbl 5 10.00 A Few Clouds FEW038 57.2 50 77% 30.07 0.0
06 02:15 S 9 10.00 Partly Cloudy SCT040 57.2 50 77% 30.07 0.0
06 01:55 S 5 10.00 Overcast OVC041 59 50 72% 30.07 0.0
06 01:35 Calm 10.00 Overcast OVC041 59 51.8 77% 30.08 0.0
06 01:15 Calm 10.00 Overcast OVC040 59 51.8 77% 30.08 0.0
06 00:55 W 5 10.00 Overcast OVC040 59 50 72% 30.07 0.0
05 23:45 W 7 10.00 Overcast OVC043 59 50 72% 30.06 0.0
05 23:35 Vrbl 5 10.00 Mostly Cloudy BKN043 59 50 72% 30.05 0.0
05 23:15 W 3 10.00 A Few Clouds FEW045 59 50 72% 30.05 0.0
05 22:55 Calm 10.00 Fair CLR 59 50 72% 30.04 0.0
05 22:35 Calm 10.00 Fair CLR 59 50 72% 30.04 0.0
05 22:15 Vrbl 3 10.00 Partly Cloudy SCT044 59 50 72% 30.03 0.0
05 21:55 SW 6 G 13 10.00 Mostly Cloudy BKN044 60.8 50 68% 30.03 0.0
05 21:35 SW 13 10.00 Partly Cloudy SCT042 60.8 50 68% 30.02 0.0
05 21:15 SW 14 10.00 Overcast OVC042 60.8 50 68% 30.01 0.0
05 20:45 W 14 10.00 Overcast OVC044 62.6 50 64% 30 0.0
05 20:35 W 8 10.00 Overcast OVC043 62.6 50 64% 30 0.0
05 20:05 W 9 G 15 10.00 Overcast OVC042 62.6 50 64% 30 0.0
05 19:55 W 12 10.00 Overcast OVC042 62.6 48.2 60% 29.99 0.0
05 19:35 W 13 10.00 Overcast OVC043 62.6 50 64% 29.99 0.0
05 19:15 W 12 10.00 Overcast OVC044 62.6 50 64% 29.98 0.0
05 18:55 W 13 10.00 Mostly Cloudy BKN046 64.4 50 60% 29.98 0.0
05 18:35 W 8 10.00 Overcast OVC046 64.4 50 60% 29.98 0.0
05 18:15 NW 8 10.00 Overcast OVC044 64.4 50 60% 29.98 0.0
05 17:55 W 9 10.00 Overcast OVC043 64.4 50 60% 29.98 0.0
05 17:35 W 10 10.00 Overcast BKN037 OVC044 66.2 48.2 52% 29.98 0.0
05 17:15 W 12 10.00 Overcast OVC038 66.2 50 56% 29.97 0.0
05 16:55 W 14 10.00 Overcast OVC038 66.2 50 56% 29.97 0.0
05 16:35 W 10 10.00 Overcast OVC033 64.4 50 60% 29.97 0.0
05 16:15 W 6 10.00 Overcast OVC032 64.4 50 60% 29.98 0.0
05 15:55 NW 8 10.00 Overcast OVC030 62.6 50 64% 29.98 0.0
05 15:35 NW 9 10.00 Overcast OVC028 62.6 50 64% 29.98 0.0
05 15:15 NW 9 G 17 10.00 Overcast OVC029 62.6 50 64% 29.99 0.0
05 14:55 NW 10 G 16 10.00 Overcast BKN028 OVC035 62.6 50 64% 29.99 0.0
05 14:35 W 9 G 15 10.00 Overcast BKN028 OVC036 64.4 50 60% 29.99 0.0
05 14:15 W 9 G 16 10.00 Overcast OVC027 62.6 50 64% 29.99 0.0
05 13:55 W 9 G 16 10.00 Overcast OVC027 62.6 50 64% 29.99 0.0
05 13:35 NW 10 G 16 10.00 Overcast OVC026 62.6 50 64% 29.99 0.0
05 13:15 W 9 10.00 Overcast OVC026 60.8 51.8 72% 30 0.0
05 12:55 W 12 10.00 Overcast OVC025 60.8 50 68% 30 0.0
05 12:05 W 8 G 21 10.00 Overcast OVC034 60.8 50 68% 30 0.0
05 11:55 NW 13 G 21 10.00 Overcast FEW022 OVC035 60.8 50 68% 29.99 0.0
05 11:35 W 10 G 20 10.00 Overcast SCT022 OVC033 60.8 51.8 72% 29.99 0.0
05 11:15 W 9 10.00 Overcast SCT022 OVC032 59 51.8 77% 29.99 0.0
05 10:55 NW 8 10.00 Overcast FEW020 OVC032 59 53.6 82% 29.99 0.0
05 10:35 NW 7 10.00 Overcast BKN021 OVC033 59 53.6 82% 29.99 0.0
05 10:15 NW 9 10.00 Overcast OVC022 57.2 53.6 88% 29.99 0.0
05 09:55 W 7 10.00 Overcast BKN023 OVC028 57.2 53.6 88% 29.99 0.0
05 08:45 Calm 10.00 Overcast BKN027 OVC047 57.2 50 77% 29.98 0.0
05 08:35 Calm 10.00 Overcast SCT027 SCT033 OVC047 57.2 51.8 82% 29.98 0.0
05 08:15 NW 3 10.00 Overcast FEW033 OVC045 57.2 57.2 100% 29.98 0.0
05 07:55 Calm 10.00 Overcast OVC044 55.4 55.4 100% 29.97 0.0
05 07:25 Calm 10.00 Overcast OVC044 55.4 55.4 100% 29.96 0.0
05 07:15 Calm 10.00 Overcast OVC044 55.4 55.4 100% 29.96 0.0
05 06:45 Calm 10.00 Overcast OVC050 55.4 55.4 100% 29.95 0.0
05 06:35 Calm 10.00 Overcast OVC050 55.4 53.6 94% 29.95 0.0
05 06:15 Calm 10.00 Overcast BKN050 OVC065 53.6 53.6 100% 29.94 0.0
05 05:55 Calm 10.00 Overcast BKN060 OVC070 53.6 53.6 100% 29.94 0.0
05 05:35 SW 5 10.00 Overcast OVC060 53.6 53.6 100% 29.94 0.0
05 05:15 Calm 10.00 Overcast FEW041 BKN065 OVC095 53.6 53.6 100% 29.95 0.0
05 04:55 W 5 10.00 Overcast FEW041 BKN060 OVC080 53.6 53.6 100% 29.96 0.0
05 04:35 W 5 10.00 Overcast BKN065 OVC090 53.6 53.6 100% 29.96 0.0
05 04:15 NW 7 10.00 Overcast FEW070 OVC095 53.6 53.6 100% 29.96 0.0
05 03:55 W 6 10.00 Overcast SCT070 OVC090 53.6 53.6 100% 29.96 0.0
05 03:35 W 5 10.00 Overcast FEW046 OVC075 53.6 53.6 100% 29.96 0.0
05 03:15 W 5 10.00 Overcast BKN045 OVC075 53.6 53.6 100% 29.96 0.0
05 02:55 W 6 10.00 Overcast SCT047 OVC075 55.4 55.4 100% 29.96 0.0
05 02:35 NW 5 10.00 Overcast FEW040 FEW047 OVC075 53.6 53.6 100% 29.97 0.0
05 02:15 Calm 10.00 Overcast SCT029 OVC075 53.6 53.6 100% 29.97 0.0
05 01:55 Calm 10.00 Overcast OVC029 53.6 53.6 100% 29.97 0.0 0.02
05 01:35 NW 8 9.00 Overcast BKN028 BKN034 OVC044 53.6 53.6 100% 29.97 0.0
05 01:15 NW 9 7.00 Overcast FEW024 BKN028 OVC041 53.6 53.6 100% 29.98 0.0
05 00:55 NW 7 8.00 Overcast BKN025 BKN030 OVC065 55.4 55.4 100% 29.98 0.0
05 00:35 NW 9 9.00 Overcast FEW028 BKN065 OVC075 55.4 51.8 88% 29.99 0.0
05 00:15 NW 6 10.00 Overcast OVC075 57.2 50 77% 29.98 0.0
04 23:55 NW 8 10.00 Overcast OVC075 57.2 48.2 72% 29.98 0.0
04 23:35 NW 6 10.00 Overcast OVC070 57.2 48.2 72% 29.97 0.0
04 23:15 N 8 10.00 Overcast OVC070 57.2 50 77% 29.97 0.0
04 22:55 NW 6 10.00 Overcast OVC075 57.2 50 77% 29.97 0.0
04 22:35 W 6 10.00 Overcast FEW023 OVC075 57.2 50 77% 29.97 0.0
04 22:15 W 6 10.00 Overcast SCT024 OVC075 57.2 50 77% 29.98 0.0
04 21:55 W 7 10.00 Overcast FEW025 OVC075 59 48.2 68% 29.98 0.0
04 21:15 NW 9 10.00 Overcast OVC041 59 48.2 68% 29.97 0.0
04 20:55 NW 8 10.00 Overcast BKN039 OVC065 59 48.2 68% 29.97 0.0
04 20:35 W 5 10.00 Overcast FEW041 OVC060 59 48.2 68% 29.96 0.0
04 20:15 W 6 10.00 Overcast BKN060 OVC065 59 48.2 68% 29.95 0.0
04 19:55 Calm 10.00 Overcast OVC055 60.8 59 94% 29.95 0.0
04 19:35 Calm 10.00 Overcast OVC055 59 59 100% 29.95 0.0
04 18:05 E 5 10.00 Overcast SCT043 OVC055 59 59 100% 29.96 0.0
04 17:55 E 5 10.00 Overcast SCT043 OVC055 59 59 100% 29.96 0.0
04 17:35 SE 5 10.00 Overcast FEW029 OVC043 59 59 100% 29.96 0.0
04 16:45 E 8 10.00 Overcast OVC036 60.8 51.8 72% 29.97 0.0
04 16:35 E 8 10.00 Overcast OVC038 62.6 51.8 68% 29.96 0.0
04 16:15 Calm 10.00 Overcast BKN040 OVC046 62.6 50 64% 29.96 0.0
04 15:55 Vrbl 3 10.00 Overcast OVC048 62.6 50 64% 29.96 0.0
04 15:35 SE 6 10.00 Overcast FEW038 OVC048 62.6 50 64% 29.96 0.0
04 15:15 S 5 9.00 Overcast SCT037 OVC047 62.6 50 64% 29.97 0.0
04 14:35 S 7 10.00 Mostly Cloudy BKN055 62.6 48.2 60% 29.97 0.0
04 13:05 Vrbl 6 10.00 Mostly Cloudy BKN041 BKN060 66.2 46.4 49% 29.97 0.0
04 12:55 Calm 10.00 Partly Cloudy SCT042 SCT055 66.2 46.4 49% 29.97 0.0
04 12:35 Calm 10.00 A Few Clouds FEW055 FEW110 64.4 46.4 52% 29.97 0.0
04 12:15 SE 6 G 12 10.00 Fair CLR 64.4 48.2 56% 29.98 0.0
04 11:55 NE 7 10.00 Fair CLR 64.4 48.2 56% 29.98 0.0
04 11:35 E 7 10.00 A Few Clouds FEW120 62.6 48.2 60% 29.98 0.0
04 11:15 E 6 10.00 Partly Cloudy SCT120 62.6 46.4 56% 29.98 0.0
04 10:55 E 6 10.00 Partly Cloudy SCT110 62.6 46.4 56% 29.98 0.0
04 10:35 E 7 10.00 Partly Cloudy SCT110 60.8 46.4 59% 29.98 0.0
04 10:15 E 8 10.00 A Few Clouds FEW120 60.8 46.4 59% 29.97 0.0
04 09:55 E 8 10.00 A Few Clouds FEW120 60.8 46.4 59% 29.97 0.0
04 09:35 E 8 10.00 Partly Cloudy SCT120 60.8 48.2 63% 29.96 0.0
04 08:55 N 6 10.00 Fair CLR 60.8 44.6 55% 29.96 0.0
04 08:35 Calm 10.00 Partly Cloudy SCT060 60.8 44.6 55% 29.96 0.0
04 08:05 SW 5 10.00 Overcast OVC060 59 44.6 59% 29.97 0.0
04 07:55 SW 5 10.00 Overcast OVC060 59 44.6 59% 29.97 0.0
04 07:35 SE 5 10.00 Overcast SCT047 OVC060 57.2 48.2 72% 29.97 0.0
04 07:15 SE 5 10.00 Overcast FEW048 OVC055 55.4 48.2 77% 29.97 0.0
04 06:55 E 5 10.00 Overcast OVC055 55.4 46.4 72% 29.97 0.0
04 06:35 NE 3 10.00 Overcast OVC055 55.4 44.6 67% 29.96 0.0
04 06:15 Calm 10.00 Overcast FEW041 OVC055 55.4 44.6 67% 29.95 0.0
04 04:45 NW 6 10.00 Overcast BKN042 BKN055 OVC075 55.4 44.6 67% 29.94 0.0
04 04:35 N 5 10.00 Overcast SCT044 OVC075 57.2 44.6 63% 29.94 0.0
04 04:15 NW 8 10.00 Overcast SCT045 OVC070 57.2 44.6 63% 29.95 0.0
04 03:55 W 6 G 14 10.00 Overcast OVC065 57.2 44.6 63% 29.94 0.0
04 03:35 W 9 10.00 Overcast OVC060 57.2 44.6 63% 29.94 0.0
04 03:15 NW 8 10.00 Overcast FEW049 OVC060 57.2 44.6 63% 29.94 0.0
04 02:55 NW 7 10.00 Overcast BKN050 OVC060 57.2 44.6 63% 29.95 0.0
04 02:35 Vrbl 6 10.00 Overcast OVC050 57.2 42.8 59% 29.94 0.0
04 02:15 NW 9 10.00 Overcast OVC055 57.2 44.6 63% 29.94 0.0
04 01:55 NW 7 G 14 10.00 Overcast OVC055 57.2 44.6 63% 29.94 0.0
04 01:35 NW 5 G 12 10.00 Overcast OVC050 57.2 44.6 63% 29.95 0.0
04 01:05 NW 9 10.00 Overcast OVC050 57.2 44.6 63% 29.95 0.0
04 00:45 NW 9 G 15 10.00 Overcast OVC050 57.2 44.6 63% 29.94 0.0
04 00:35 W 5 G 12 10.00 Overcast OVC050 57.2 44.6 63% 29.94 0.0
Date Time (pdt) Wind (mph) Vis. (mi.) Weather Sky Cond. Air Dwpt Max. Min. Relative Humidity Wind Chill (°F) Heat Index (°F) altimeter (in) sea level (mb) 1 hr 3 hr 6 hr
6 hour
Temperature (ºF) Pressure Precipitation (in)